一网星座-0621星 (ONEWEB-0621)

导读 | 豆包AI

ONEWEB-0621是英国一网公司(OneWeb)低轨卫星互联网星座的成员,于2023年1月10日发射升空。该卫星运行在1200公里高度的近地轨道,属于OneWeb卫星星座组网卫星,依托Ku波段提供全球高速低延迟卫星互联网接入服务。卫星重量约175-200千克,配合地面相控阵终端可实现50Mbps网络连接,服务全球偏远地区通信、物联网连接等场景,助力OneWeb完成全球卫星互联网星座的部署,推动全球无缝网络覆盖建设。

基本信息
目录编号:
55162
目录名称:
ONEWEB-0621
国际标识:
2023-004Y
轨道中心:
EARTH
卫星名称:
一网星座-0621星
卫星全名:
一网星座-0621星 (ONEWEB-0621)
卫星状态:
在轨 (已飞行1180 天)
发射日期:
2023-01-10 UTC
国别 :
英国 (GB)
星等 :
--
轨道信息
数据来源 国际轨道数据 AOE轨道数据
星历时间 2026-04-04T02:37:25+0800
8小时前
查看轨道信息
2026-04-02T13:00:00+0800
1天前
查看轨道信息
半长轴 7595.83km 7595.801km
偏心率 0.0001621 0.0002059
轨道倾角 87.891° 87.898°
近地点辐角 81.405° 128.099°
升交点赤经 35.852° 36.159°
平近点角 278.726° 35.263°
近地点 1216.461km 1216.1km
远地点 1218.925km 1219.228km
周期 109.805分钟 109.804分钟
每日圈数 13.114144 13.114218
详细信息
平衡模式:
三轴稳定
覆盖范围:
全球
运营商:
一网卫星公司
运营商所在国:
英国
制造商(研发单位):
一网卫星公司
制造商所在国:
英国
使用方式:
暂无
卫星简介
OneWeb卫星网络由648颗重约125公斤的微型卫星组成,运行在1200公里的轨道上。 每颗卫星都能够提供至少每秒8千兆位的吞吐量,以使用其高吞吐量的Ku频段有效载荷为家庭和移动平台提供互联网接入。该卫星仍在工作。
2D轨道图
3D轨道图
轨道高度分析图
轨道倾角分析图
轨道综合分析图
查看轨道综合分析图